Location: Béaulencourt
(50.0796°N, 2.8795°E)
Time: 22:48:32
(UTC+00:00)

Gblst 52 Del rocket - Pass Details

Date: 20 January 2026
Orbit: 805 x 1364 km, 51.5° (Epoch: 7 February)

Event Time Altitude Azimuth Distance (km) Brightness Sun altitude
Exits shadow 05:11:33 46° 234° (SW) 1,065 4.4 -22.9°
Maximum altitude 05:12:10 49° 212° (SSW) 1,032 4.4 -22.8°
Drops below altitude 10° 05:17:28 10° 139° (SE) 2,405 7.2 -21.9°
Sets 05:20:02 0° 134° (SE) 3,370 8.1 -21.5°
